Radiation Dose at Monitoring Post of Fukushima Daini Nuclear Power Station
Date,Time,MP-1(microSv/h),MP-2(microSv/h),MP-3(microSv/h),MP-4(microSv/h),MP-5(microSv/h),MP-6(microSv/h),MP-7(microSv/h),Wind Direction,Wind Velocity(m/s),Rain
2016/09/02,00:00,0.395,0.239,0.417,0.381,0.366,0.194,0.167,north,3.0,No
2016/09/02,00:10,0.394,0.237,0.415,0.382,0.366,0.195,0.166,north-northwest,2.8,No
2016/09/02,00:20,0.394,0.239,0.414,0.379,0.363,0.195,0.165,north-northwest,3.9,No
2016/09/02,00:30,0.396,0.237,0.416,0.384,0.366,0.195,0.167,north-northwest,5.4,No
2016/09/02,00:40,0.393,0.240,0.412,0.380,0.363,0.195,0.166,north,4.8,No
2016/09/02,00:50,0.397,0.238,0.414,0.379,0.366,0.193,0.165,north-northwest,4.8,No
2016/09/02,01:00,0.394,0.237,0.415,0.382,0.366,0.196,0.166,north-northwest,3.2,No
2016/09/02,01:10,0.393,0.238,0.411,0.378,0.363,0.194,0.164,north-northwest,4.2,No
2016/09/02,01:20,0.395,0.237,0.415,0.381,0.366,0.194,0.166,north-northwest,3.6,No
2016/09/02,01:30,0.392,0.238,0.416,0.381,0.365,0.194,0.164,north,2.8,No
2016/09/02,01:40,0.393,0.238,0.412,0.380,0.362,0.194,0.166,north-northwest,2.5,No
2016/09/02,01:50,0.395,0.236,0.416,0.382,0.366,0.196,0.165,north-northwest,1.6,No
2016/09/02,02:00,0.392,0.238,0.414,0.380,0.365,0.194,0.164,north,1.9,No
2016/09/02,02:10,0.394,0.239,0.413,0.380,0.365,0.193,0.167,north-northwest,2.5,No
2016/09/02,02:20,0.395,0.236,0.414,0.381,0.366,0.195,0.164,north,4.4,No
2016/09/02,02:30,0.391,0.237,0.412,0.377,0.363,0.194,0.165,north-northwest,2.8,No
2016/09/02,02:40,0.395,0.236,0.418,0.383,0.367,0.195,0.165,north,5.3,No
2016/09/02,02:50,0.393,0.237,0.415,0.379,0.364,0.195,0.165,north,4.9,No
2016/09/02,03:00,0.392,0.237,0.413,0.379,0.364,0.194,0.165,north,5.7,No
2016/09/02,03:10,0.395,0.236,0.415,0.382,0.365,0.195,0.165,north-northwest,5.4,No
2016/09/02,03:20,0.393,0.238,0.412,0.378,0.362,0.193,0.166,north-northwest,4.1,No
2016/09/02,03:30,0.393,0.237,0.412,0.381,0.367,0.196,0.165,north-northwest,5.1,No
2016/09/02,03:40,0.395,0.237,0.414,0.380,0.364,0.193,0.164,north-northwest,6.9,No
2016/09/02,03:50,0.393,0.238,0.412,0.379,0.364,0.194,0.165,north-northwest,6.2,No
2016/09/02,04:00,0.394,0.236,0.416,0.381,0.365,0.194,0.164,north-northwest,6.1,No
2016/09/02,04:10,0.395,0.238,0.413,0.377,0.362,0.194,0.165,north-northwest,5.9,No
2016/09/02,04:20,0.391,0.236,0.414,0.380,0.365,0.194,0.165,north-northwest,5.7,No
2016/09/02,04:30,0.394,0.237,0.417,0.377,0.364,0.192,0.165,north-northwest,5.8,No
2016/09/02,04:40,0.394,0.236,0.410,0.380,0.363,0.194,0.164,north-northwest,4.8,No
2016/09/02,04:50,0.392,0.235,0.415,0.381,0.367,0.195,0.165,north-northwest,4.8,No
2016/09/02,05:00,0.393,0.237,0.413,0.378,0.361,0.193,0.165,north-northwest,4.3,No
2016/09/02,05:10,0.394,0.236,0.412,0.381,0.366,0.196,0.163,north-northwest,5.6,No
2016/09/02,05:20,0.392,0.236,0.414,0.380,0.364,0.193,0.166,north,5.6,No
2016/09/02,05:30,0.394,0.237,0.411,0.379,0.364,0.194,0.163,north-northwest,6.4,No
2016/09/02,05:40,0.391,0.236,0.416,0.378,0.366,0.194,0.165,north-northwest,6.2,No
2016/09/02,05:50,0.397,0.238,0.414,0.377,0.362,0.194,0.164,north,6.8,No
2016/09/02,06:00,0.393,0.237,0.413,0.381,0.366,0.195,0.164,north,6.6,No
2016/09/02,06:10,0.392,0.237,0.415,0.378,0.362,0.193,0.164,north,5.8,No
2016/09/02,06:20,0.395,0.238,0.411,0.379,0.363,0.195,0.163,north,5.1,No
2016/09/02,06:30,0.392,0.234,0.414,0.381,0.364,0.193,0.164,north,6.1,No
2016/09/02,06:40,0.395,0.237,0.415,0.378,0.361,0.194,0.164,north,5.8,No
2016/09/02,06:50,0.393,0.237,0.411,0.380,0.362,0.194,0.163,north,6.6,No
2016/09/02,07:00,0.392,0.236,0.415,0.380,0.365,0.193,0.163,north,6.3,No
2016/09/02,07:10,0.391,0.237,0.415,0.376,0.362,0.193,0.163,north,6.1,No
2016/09/02,07:20,0.395,0.237,0.411,0.381,0.360,0.194,0.164,north,5.2,No
2016/09/02,07:30,0.392,0.236,0.412,0.377,0.365,0.193,0.164,north,3.8,No
2016/09/02,07:40,0.391,0.234,0.416,0.376,0.366,0.194,0.164,north,4.7,No
2016/09/02,07:50,0.392,0.236,0.411,0.377,0.362,0.194,0.164,north,6.1,No
2016/09/02,08:00,0.394,0.236,0.409,0.381,0.359,0.193,0.164,north,5.6,No
2016/09/02,08:10,0.392,0.237,0.416,0.380,0.364,0.192,0.164,north,5.5,No
2016/09/02,08:20,0.390,0.235,0.415,0.378,0.366,0.194,0.164,north-northwest,5.3,No
2016/09/02,08:30,0.389,0.235,0.412,0.376,0.363,0.195,0.164,north,4.5,No
2016/09/02,08:40,0.391,0.235,0.411,0.378,0.361,0.193,0.165,north,4.8,No
2016/09/02,08:50,0.389,0.235,0.416,0.379,0.359,0.193,0.165,north,3.9,No
2016/09/02,09:00,0.389,0.236,0.415,0.377,0.361,0.193,0.164,north-northeast,4.6,No
2016/09/02,09:10,0.391,0.236,0.413,0.377,0.360,0.194,0.164,north-northeast,6.1,No
2016/09/02,09:20,0.391,0.235,0.409,0.377,0.361,0.193,0.165,north,6.2,No
2016/09/02,09:30,0.392,0.237,0.407,0.378,0.361,0.194,0.164,north-northeast,7.1,No
2016/09/02,09:40,0.391,0.237,0.409,0.380,0.364,0.195,0.165,north-northeast,6.1,No
2016/09/02,09:50,0.391,0.238,0.415,0.379,0.364,0.194,0.165,north-northeast,6.4,No
2016/09/02,10:00,0.391,0.237,0.416,0.380,0.365,0.195,0.165,north-northeast,6.4,No
2016/09/02,10:10,0.393,0.237,0.415,0.381,0.366,0.195,0.166,northeast,6.3,No
2016/09/02,10:20,0.393,0.238,0.412,0.380,0.366,0.195,0.166,north-northeast,5.9,No
2016/09/02,10:30,0.394,0.237,0.411,0.380,0.364,0.194,0.166,north-northeast,7.6,No
2016/09/02,10:40,0.391,0.237,0.411,0.380,0.365,0.194,0.165,north-northeast,6.8,No
2016/09/02,10:50,0.392,0.236,0.410,0.379,0.365,0.195,0.166,north-northeast,8.7,No
2016/09/02,11:00,0.393,0.236,0.410,0.380,0.365,0.196,0.165,north-northeast,7.2,No
2016/09/02,11:10,0.392,0.237,0.412,0.381,0.364,0.195,0.166,northeast,7.7,No
2016/09/02,11:20,0.392,0.237,0.413,0.380,0.365,0.196,0.166,northeast,7.9,No
2016/09/02,11:30,0.393,0.237,0.413,0.379,0.364,0.194,0.165,north-northeast,6.9,No
2016/09/02,11:40,0.393,0.237,0.413,0.380,0.362,0.195,0.164,north-northeast,8.5,No
2016/09/02,11:50,0.393,0.237,0.414,0.380,0.365,0.195,0.166,north-northeast,7.5,No
2016/09/02,12:00,0.392,0.237,0.414,0.381,0.364,0.194,0.166,north-northeast,7.1,No
2016/09/02,12:10,0.393,0.237,0.415,0.382,0.365,0.196,0.166,north-northeast,6.0,No
2016/09/02,12:20,0.391,0.236,0.414,0.383,0.365,0.196,0.166,north-northeast,6.4,No
2016/09/02,12:30,0.391,0.237,0.416,0.383,0.364,0.196,0.166,north-northeast,7.4,No
2016/09/02,12:40,0.391,0.238,0.415,0.383,0.366,0.195,0.165,north-northeast,7.5,No
2016/09/02,12:50,0.393,0.237,0.416,0.382,0.366,0.196,0.166,north-northeast,7.4,No
2016/09/02,13:00,0.395,0.237,0.416,0.382,0.366,0.194,0.166,north-northeast,7.6,No
2016/09/02,13:10,0.393,0.237,0.416,0.383,0.367,0.196,0.166,northeast,6.1,No
2016/09/02,13:20,0.395,0.237,0.416,0.382,0.365,0.195,0.167,north-northeast,6.6,No
2016/09/02,13:30,0.394,0.239,0.416,0.381,0.365,0.194,0.166,north-northeast,7.4,No
2016/09/02,13:40,0.393,0.238,0.417,0.381,0.365,0.194,0.166,north-northeast,6.1,No
2016/09/02,13:50,0.392,0.237,0.416,0.382,0.366,0.194,0.165,north-northeast,6.4,No
2016/09/02,14:00,0.391,0.238,0.416,0.380,0.366,0.196,0.165,northeast,7.0,No
2016/09/02,14:10,0.393,0.238,0.415,0.381,0.364,0.195,0.166,north-northeast,8.0,No
2016/09/02,14:20,0.392,0.236,0.414,0.379,0.364,0.195,0.166,north,6.7,No
2016/09/02,14:30,0.393,0.237,0.415,0.379,0.365,0.195,0.165,north-northeast,7.5,No
2016/09/02,14:40,0.399,0.237,0.413,0.381,0.365,0.196,0.165,north-northeast,5.6,No
2016/09/02,14:50,0.399,0.236,0.411,0.379,0.365,0.195,0.165,north-northeast,6.5,No
2016/09/02,15:00,0.396,0.237,0.413,0.379,0.365,0.195,0.166,north-northeast,6.4,No
2016/09/02,15:10,0.395,0.236,0.412,0.380,0.365,0.194,0.166,north,4.8,No
2016/09/02,15:20,0.392,0.237,0.413,0.380,0.363,0.194,0.164,north,5.8,No
2016/09/02,15:30,0.393,0.237,0.413,0.378,0.364,0.193,0.164,north,4.0,No
2016/09/02,15:40,0.399,0.237,0.413,0.378,0.363,0.194,0.165,north,4.1,No
2016/09/02,15:50,0.398,0.238,0.410,0.383,0.366,0.194,0.164,north-northeast,4.7,No
2016/09/02,16:00,0.395,0.239,0.411,0.384,0.364,0.194,0.165,north-northeast,5.3,No
2016/09/02,16:10,0.392,0.238,0.419,0.382,0.366,0.195,0.167,north-northeast,5.1,No
2016/09/02,16:20,0.391,0.237,0.418,0.379,0.363,0.195,0.166,north-northeast,5.1,No
2016/09/02,16:30,0.398,0.235,0.417,0.380,0.364,0.194,0.164,north,5.4,No
2016/09/02,16:40,0.397,0.238,0.415,0.381,0.362,0.195,0.165,north,6.1,No
2016/09/02,16:50,0.395,0.239,0.412,0.385,0.366,0.194,0.166,north-northeast,5.2,No
2016/09/02,17:00,0.392,0.237,0.414,0.384,0.369,0.196,0.167,north,5.3,No
2016/09/02,17:10,0.399,0.236,0.418,0.380,0.368,0.196,0.166,north,5.6,No
2016/09/02,17:20,0.398,0.238,0.417,0.379,0.364,0.195,0.164,north,4.2,No
2016/09/02,17:30,0.395,0.238,0.415,0.384,0.363,0.194,0.165,north,4.2,No
2016/09/02,17:40,0.392,0.238,0.413,0.384,0.368,0.195,0.167,north,5.0,No
2016/09/02,17:50,0.398,0.236,0.418,0.381,0.366,0.196,0.166,north,4.6,No
2016/09/02,18:00,0.399,0.238,0.419,0.380,0.364,0.196,0.164,north,3.5,No
2016/09/02,18:10,0.395,0.238,0.415,0.384,0.363,0.195,0.163,north,3.4,No
2016/09/02,18:20,0.391,0.237,0.413,0.384,0.367,0.194,0.167,north,4.0,No
2016/09/02,18:30,0.397,0.238,0.419,0.380,0.366,0.195,0.165,north,3.1,No
2016/09/02,18:40,0.398,0.238,0.419,0.381,0.363,0.196,0.165,north,2.7,No
2016/09/02,18:50,0.394,0.236,0.415,0.386,0.366,0.195,0.165,north,4.0,No
2016/09/02,19:00,0.392,0.237,0.414,0.383,0.367,0.194,0.167,north,3.4,No
2016/09/02,19:10,0.397,0.239,0.419,0.380,0.366,0.194,0.167,north,3.6,No
2016/09/02,19:20,0.398,0.238,0.417,0.382,0.364,0.194,0.165,north-northwest,3.0,No
2016/09/02,19:30,0.394,0.237,0.413,0.385,0.369,0.195,0.167,north-northwest,3.7,No
2016/09/02,19:40,0.393,0.239,0.416,0.381,0.365,0.195,0.166,north,4.4,No
2016/09/02,19:50,0.397,0.239,0.419,0.381,0.363,0.195,0.165,north-northwest,2.8,No
2016/09/02,20:00,0.396,0.236,0.415,0.384,0.368,0.195,0.167,north-northwest,2.2,No
2016/09/02,20:10,0.392,0.239,0.414,0.382,0.366,0.196,0.166,north-northwest,4.3,No
2016/09/02,20:20,0.395,0.239,0.418,0.379,0.363,0.195,0.165,north-northwest,4.4,No
2016/09/02,20:30,0.398,0.237,0.418,0.385,0.365,0.194,0.166,north,3.4,No
2016/09/02,20:40,0.394,0.238,0.415,0.384,0.367,0.195,0.167,north-northwest,4.5,No
2016/09/02,20:50,0.393,0.239,0.413,0.379,0.366,0.196,0.165,north,4.6,No
2016/09/02,21:00,0.397,0.239,0.419,0.383,0.364,0.195,0.165,north,4.4,No
2016/09/02,21:10,0.396,0.237,0.416,0.385,0.367,0.196,0.167,north,4.4,No
2016/09/02,21:20,0.391,0.239,0.414,0.383,0.365,0.196,0.166,north,4.4,No
2016/09/02,21:30,0.397,0.238,0.419,0.379,0.364,0.194,0.165,north,3.8,No
2016/09/02,21:40,0.397,0.238,0.417,0.385,0.367,0.196,0.167,north,3.5,No
2016/09/02,21:50,0.395,0.239,0.414,0.383,0.368,0.196,0.166,north,3.8,No
2016/09/02,22:00,0.396,0.238,0.417,0.381,0.363,0.194,0.166,north,3.4,No
2016/09/02,22:10,0.398,0.238,0.420,0.384,0.368,0.195,0.169,north-northeast,2.2,No
2016/09/02,22:20,0.395,0.240,0.415,0.383,0.367,0.195,0.166,north-northeast,1.9,No
2016/09/02,22:30,0.393,0.240,0.416,0.379,0.363,0.195,0.166,northeast,2.2,Yes
2016/09/02,22:40,0.397,0.238,0.419,0.384,0.367,0.195,0.167,northeast,1.9,Yes
2016/09/02,22:50,0.397,0.239,0.416,0.384,0.368,0.196,0.167,north-northeast,1.2,Yes
2016/09/02,23:00,0.394,0.239,0.413,0.380,0.363,0.194,0.165,north,1.2,No
2016/09/02,23:10,0.396,0.238,0.419,0.382,0.365,0.197,0.167,north,0.8,No
2016/09/02,23:20,0.398,0.240,0.418,0.385,0.367,0.196,0.167,north,0.7,No
2016/09/02,23:30,0.393,0.238,0.415,0.380,0.364,0.194,0.166,northeast,0.9,No
2016/09/02,23:40,0.394,0.237,0.419,0.381,0.362,0.195,0.167,northeast,1.1,No
2016/09/02,23:50,0.398,0.239,0.419,0.383,0.368,0.195,0.167,northeast,1.0,No
